| time (UTC) | temp F | wind direction | speed knots | gust knots | rain 1hr in | rain 24hr in | rain mn in | humidity % | barometer mb |
| 20260507125746 | 66 | 23 | 0.9 | 3.5 | 0.00 | 0.00 | 0.00 | 35 | 1011.5 |
| 20260507125245 | 66 | 23 | 0.0 | 2.6 | 0.00 | 0.00 | 0.00 | 35 | 1011.8 |
| 20260507124745 | 66 | 23 | 0.0 | 1.7 | 0.00 | 0.00 | 0.00 | 35 | 1011.8 |
| 20260507124246 | 66 | 0 | 0.0 | 2.6 | 0.00 | 0.00 | 0.00 | 35 | 1011.8 |
| 20260507123745 | 66 | 23 | 0.0 | 2.6 | 0.00 | 0.00 | 0.00 | 35 | 1011.8 |
| 20260507123245 | 66 | 338 | 0.0 | 1.7 | 0.00 | 0.00 | 0.00 | 35 | 1011.8 |
| 20260507122745 | 66 | 0 | 0.0 | 3.5 | 0.00 | 0.00 | 0.00 | 35 | 1011.8 |
| 20260507122245 | 66 | 45 | 0.9 | 3.5 | 0.00 | 0.00 | 0.00 | 35 | 1011.8 |
| 20260507121744 | 66 | 23 | 0.0 | 1.7 | 0.00 | 0.00 | 0.00 | 35 | 1011.8 |
| 20260507121245 | 66 | 23 | 0.0 | 0.9 | 0.00 | 0.00 | 0.00 | 35 | 1011.8 |
| 20260507120745 | 66 | 23 | 0.0 | 2.6 | 0.00 | 0.00 | 0.00 | 35 | 1011.8 |
| 20260507120516 | 66 | 45 | 0.0 | 2.6 | 0.00 | 0.00 | 0.00 | 35 | 1011.8 |
| 20260507115745 | 66 | 0 | 0.0 | 1.7 | 0.00 | 0.00 | 0.00 | 35 | 1011.8 |
| 20260507115245 | 66 | 45 | 0.0 | 1.7 | 0.00 | 0.00 | 0.00 | 35 | 1011.8 |
| 20260507114744 | 66 | 45 | 0.0 | 0.0 | 0.00 | 0.00 | 0.00 | 35 | 1011.8 |
| 20260507114248 | 66 | 45 | 0.0 | 0.9 | 0.00 | 0.00 | 0.00 | 35 | 1011.8 |
| 20260507114244 | 66 | 45 | 0.0 | 0.9 | 0.00 | 0.00 | 0.00 | 35 | 1011.8 |
| 20260507113244 | 66 | 45 | 0.0 | 1.7 | 0.00 | 0.00 | 0.00 | 35 | 1011.8 |
| 20260507112744 | 66 | 23 | 0.0 | 1.7 | 0.00 | 0.00 | 0.00 | 35 | 1011.8 |
| 20260507112245 | 66 | 45 | 0.0 | 2.6 | 0.00 | 0.00 | 0.00 | 35 | 1011.5 |
| 20260507111745 | 66 | 45 | 0.0 | 2.6 | 0.00 | 0.00 | 0.00 | 35 | 1011.8 |
| 20260507111515 | 66 | 45 | 0.0 | 1.7 | 0.00 | 0.00 | 0.00 | 37 | 1011.8 |
| 20260507110745 | 66 | 23 | 0.0 | 1.7 | 0.00 | 0.00 | 0.00 | 37 | 1011.8 |
| 20260507110245 | 66 | 68 | 0.0 | 0.0 | 0.00 | 0.00 | 0.00 | 37 | 1011.8 |
| 20260507105744 | 66 | 23 | 0.0 | 0.9 | 0.00 | 0.00 | 0.00 | 37 | 1011.8 |
| 20260507105244 | 66 | 45 | 0.0 | 1.7 | 0.00 | 0.00 | 0.00 | 37 | 1012.1 |
| 20260507104743 | 66 | 68 | 0.0 | 1.7 | 0.00 | 0.00 | 0.00 | 39 | 1011.8 |
| 20260507104244 | 66 | 68 | 0.0 | 0.9 | 0.00 | 0.00 | 0.00 | 37 | 1011.8 |
| 20260507103745 | 66 | 68 | 0.0 | 0.0 | 0.00 | 0.00 | 0.00 | 39 | 1011.8 |
| 20260507103246 | 66 | 90 | 0.0 | 0.0 | 0.00 | 0.00 | 0.00 | 37 | 1011.8 |
| 20260507102745 | 66 | 90 | 0.0 | 0.0 | 0.00 | 0.00 | 0.00 | 37 | 1011.8 |
| 20260507102245 | 67 | 90 | 0.0 | 0.0 | 0.00 | 0.00 | 0.00 | 40 | 1011.8 |
| 20260507101745 | 67 | 90 | 0.0 | 0.0 | 0.00 | 0.00 | 0.00 | 39 | 1011.8 |
| 20260507101244 | 67 | 45 | 0.0 | 0.0 | 0.00 | 0.00 | 0.00 | 39 | 1012.1 |
| 20260507100744 | 67 | 45 | 0.0 | 0.0 | 0.00 | 0.00 | 0.00 | 39 | 1012.1 |
| 20260507100244 | 67 | 45 | 0.0 | 0.0 | 0.00 | 0.00 | 0.00 | 37 | 1011.8 |
| 20260507095744 | 67 | 68 | 0.0 | 0.0 | 0.00 | 0.00 | 0.00 | 37 | 1011.8 |
| 20260507095245 | 67 | 45 | 0.0 | 0.0 | 0.00 | 0.00 | 0.00 | 37 | 1012.1 |
| 20260507094746 | 67 | 23 | 0.0 | 0.0 | 0.00 | 0.00 | 0.00 | 37 | 1012.1 |
| 20260507094245 | 67 | 23 | 0.0 | 0.0 | 0.00 | 0.00 | 0.00 | 37 | 1012.1 |
| 20260507093745 | 67 | 23 | 0.0 | 0.0 | 0.00 | 0.00 | 0.00 | 37 | 1012.1 |
| 20260507093516 | 67 | 68 | 0.0 | 0.0 | 0.00 | 0.00 | 0.00 | 37 | 1012.1 |
| 20260507092744 | 68 | 68 | 0.0 | 0.0 | 0.00 | 0.00 | 0.00 | 37 | 1012.5 |
| 20260507092244 | 68 | 68 | 0.0 | 0.0 | 0.00 | 0.00 | 0.00 | 37 | 1012.1 |
| 20260507091744 | 68 | 45 | 0.0 | 0.0 | 0.00 | 0.00 | 0.00 | 37 | 1012.1 |
| 20260507091244 | 68 | 45 | 0.0 | 0.0 | 0.00 | 0.00 | 0.00 | 37 | 1012.1 |
| 20260507090745 | 68 | 23 | 0.0 | 0.9 | 0.00 | 0.00 | 0.00 | 37 | 1012.5 |
| 20260507090245 | 68 | 23 | 0.0 | 1.7 | 0.00 | 0.00 | 0.00 | 37 | 1012.1 |
| 20260507090017 | 68 | 23 | 0.0 | 1.7 | 0.00 | 0.00 | 0.00 | 35 | 1012.1 |
| 20260507085245 | 68 | 23 | 0.0 | 1.7 | 0.00 | 0.00 | 0.00 | 35 | 1012.1 |
| 20260507084745 | 68 | 23 | 0.0 | 1.7 | 0.00 | 0.00 | 0.00 | 35 | 1012.1 |
| 20260507084244 | 68 | 23 | 0.0 | 1.7 | 0.00 | 0.00 | 0.00 | 37 | 1012.1 |
| 20260507083745 | 69 | 0 | 0.9 | 1.7 | 0.00 | 0.00 | 0.00 | 37 | 1012.5 |
| 20260507083515 | 69 | 338 | 0.0 | 1.7 | 0.00 | 0.00 | 0.00 | 37 | 1012.1 |
| 20260507083014 | 69 | 338 | 0.0 | 1.7 | 0.00 | 0.00 | 0.00 | 37 | 1012.1 |
| 20260507082227 | 69 | 45 | 0.0 | 1.7 | 0.00 | 0.00 | 0.00 | 37 | 1012.5 |
| 20260507081727 | 69 | 45 | 0.0 | 1.7 | 0.00 | 0.00 | 0.00 | 37 | 1012.5 |
| 20260507081226 | 69 | 293 | 0.0 | 0.0 | 0.00 | 0.00 | 0.00 | 37 | 1012.5 |
| 20260507080726 | 69 | 293 | 0.0 | 0.0 | 0.00 | 0.00 | 0.00 | 37 | 1012.5 |
| 20260507080226 | 69 | 293 | 0.0 | 0.0 | 0.00 | 0.00 | 0.00 | 37 | 1012.5 |
| 20260507075725 | 69 | 248 | 0.0 | 0.0 | 0.00 | 0.00 | 0.00 | 37 | 1012.5 |
| 20260507075459 | 69 | 113 | 0.0 | 0.0 | 0.00 | 0.00 | 0.00 | 37 | 1012.5 |
| 20260507074725 | 70 | 68 | 0.0 | 0.0 | 0.00 | 0.00 | 0.00 | 35 | 1012.5 |
| 20260507074457 | 70 | 68 | 0.0 | 0.0 | 0.00 | 0.00 | 0.00 | 35 | 1012.5 |
| 20260507073726 | 70 | 338 | 0.0 | 0.0 | 0.00 | 0.00 | 0.00 | 35 | 1012.5 |
| 20260507073226 | 70 | 68 | 0.0 | 0.0 | 0.00 | 0.00 | 0.00 | 35 | 1012.5 |
| 20260507072726 | 70 | 203 | 0.0 | 0.0 | 0.00 | 0.00 | 0.00 | 35 | 1012.5 |
| 20260507072226 | 71 | 203 | 0.0 | 0.0 | 0.00 | 0.00 | 0.00 | 35 | 1012.5 |
| 20260507071727 | 71 | 203 | 0.0 | 0.0 | 0.00 | 0.00 | 0.00 | 35 | 1012.5 |
| 20260507071224 | 71 | 180 | 0.0 | 0.0 | 0.00 | 0.00 | 0.00 | 35 | 1012.5 |
| 20260507070725 | 71 | 158 | 0.0 | 0.0 | 0.00 | 0.00 | 0.00 | 35 | 1012.5 |
| 20260507070225 | 71 | 68 | 0.0 | 0.0 | 0.00 | 0.00 | 0.00 | 34 | 1012.5 |
| 20260507065957 | 71 | 90 | 0.0 | 0.0 | 0.00 | 0.00 | 0.00 | 32 | 1012.5 |
| 20260507065455 | 71 | 23 | 0.0 | 0.0 | 0.00 | 0.00 | 0.00 | 32 | 1012.5 |
| 20260507064727 | 72 | 158 | 0.0 | 0.0 | 0.00 | 0.00 | 0.00 | 32 | 1012.5 |
| 20260507064226 | 72 | 270 | 0.0 | 0.0 | 0.00 | 0.00 | 0.00 | 32 | 1012.1 |
| 20260507063726 | 72 | 270 | 0.0 | 0.0 | 0.00 | 0.00 | 0.00 | 31 | 1012.1 |
| 20260507063226 | 73 | 270 | 0.0 | 0.0 | 0.00 | 0.00 | 0.00 | 31 | 1012.5 |
| 20260507062726 | 73 | 293 | 0.0 | 0.0 | 0.00 | 0.00 | 0.00 | 30 | 1012.1 |
| 20260507062455 | 73 | 293 | 0.0 | 0.0 | 0.00 | 0.00 | 0.00 | 30 | 1012.1 |
| 20260507062441 | 73 | 293 | 0.0 | 0.0 | 0.00 | 0.00 | 0.00 | 30 | 1012.1 |
| 20260507061457 | 73 | 293 | 0.0 | 0.0 | 0.00 | 0.00 | 0.00 | 30 | 1012.1 |
| 20260507060724 | 73 | 293 | 0.0 | 0.0 | 0.00 | 0.00 | 0.00 | 30 | 1012.1 |
| 20260507060226 | 73 | 270 | 0.0 | 0.0 | 0.00 | 0.00 | 0.00 | 30 | 1012.1 |
| 20260507055707 | 74 | 270 | 0.0 | 0.0 | 0.00 | 0.00 | 0.00 | 30 | 1012.5 |
| 20260507055208 | 74 | 270 | 0.0 | 0.0 | 0.00 | 0.00 | 0.00 | 30 | 1012.1 |
| 20260507054707 | 74 | 270 | 0.0 | 0.0 | 0.00 | 0.00 | 0.00 | 30 | 1012.1 |
| 20260507054207 | 74 | 270 | 0.0 | 0.0 | 0.00 | 0.00 | 0.00 | 30 | 1012.5 |
| 20260507053706 | 74 | 270 | 0.0 | 0.0 | 0.00 | 0.00 | 0.00 | 30 | 1012.1 |
| 20260507053206 | 74 | 270 | 0.0 | 0.0 | 0.00 | 0.00 | 0.00 | 30 | 1012.1 |
| 20260507052707 | 74 | 270 | 0.0 | 0.0 | 0.00 | 0.00 | 0.00 | 30 | 1012.1 |
| 20260507052206 | 75 | 270 | 0.0 | 0.0 | 0.00 | 0.00 | 0.00 | 30 | 1012.1 |
| 20260507051707 | 75 | 270 | 0.0 | 0.0 | 0.00 | 0.00 | 0.00 | 30 | 1012.1 |
| 20260507051208 | 75 | 270 | 0.0 | 0.0 | 0.00 | 0.00 | 0.00 | 30 | 1012.1 |
| 20260507050708 | 75 | 270 | 0.0 | 0.0 | 0.00 | 0.00 | 0.00 | 30 | 1012.1 |
| 20260507050438 | 75 | 270 | 0.0 | 0.0 | 0.00 | 0.00 | 0.00 | 29 | 1012.1 |
| 20260507045939 | 76 | 270 | 0.0 | 0.0 | 0.00 | 0.00 | 0.00 | 29 | 1012.1 |
| 20260507045206 | 76 | 270 | 0.0 | 0.0 | 0.00 | 0.00 | 0.00 | 29 | 1012.1 |
| 20260507044706 | 76 | 270 | 0.0 | 0.0 | 0.00 | 0.00 | 0.00 | 29 | 1012.1 |
| 20260507044437 | 76 | 270 | 0.0 | 0.0 | 0.00 | 0.00 | 0.00 | 27 | 1012.1 |
| 20260507043939 | 76 | 270 | 0.0 | 0.0 | 0.00 | 0.00 | 0.00 | 27 | 1012.1 |
| 20260507043206 | 76 | 270 | 0.0 | 0.0 | 0.00 | 0.00 | 0.00 | 25 | 1012.1 |
| 20260507042707 | 76 | 225 | 0.0 | 0.0 | 0.00 | 0.00 | 0.00 | 27 | 1011.8 |
| 20260507042207 | 77 | 225 | 0.0 | 0.0 | 0.00 | 0.00 | 0.00 | 25 | 1011.8 |
| 20260507041708 | 77 | 225 | 0.0 | 0.0 | 0.00 | 0.00 | 0.00 | 27 | 1012.1 |
| 20260507041154 | 77 | 225 | 0.0 | 0.0 | 0.00 | 0.00 | 0.00 | 27 | 1011.8 |
| 20260507040649 | 78 | 270 | 0.0 | 0.0 | 0.00 | 0.00 | 0.00 | 25 | 1011.8 |
| 20260507040147 | 78 | 248 | 0.0 | 0.0 | 0.00 | 0.00 | 0.00 | 25 | 1011.8 |
| 20260507035647 | 78 | 248 | 0.0 | 0.0 | 0.00 | 0.00 | 0.00 | 25 | 1011.5 |
| 20260507035148 | 78 | 248 | 0.0 | 0.0 | 0.00 | 0.00 | 0.00 | 25 | 1011.5 |
| 20260507034647 | 78 | 248 | 0.0 | 0.0 | 0.00 | 0.00 | 0.00 | 25 | 1011.8 |
| 20260507034148 | 78 | 248 | 0.0 | 0.0 | 0.00 | 0.00 | 0.00 | 25 | 1011.5 |
| 20260507033649 | 79 | 203 | 0.0 | 0.0 | 0.00 | 0.00 | 0.00 | 24 | 1011.5 |
| 20260507033148 | 79 | 180 | 0.0 | 0.9 | 0.00 | 0.00 | 0.00 | 24 | 1011.5 |
| 20260507032648 | 79 | 180 | 0.0 | 0.9 | 0.00 | 0.00 | 0.00 | 22 | 1011.5 |
| 20260507032148 | 80 | 158 | 0.0 | 0.9 | 0.00 | 0.00 | 0.00 | 22 | 1011.1 |
| 20260507031647 | 80 | 180 | 0.0 | 0.9 | 0.00 | 0.00 | 0.00 | 22 | 1011.1 |
| 20260507031148 | 80 | 180 | 0.0 | 0.9 | 0.00 | 0.00 | 0.00 | 22 | 1011.5 |
| 20260507030647 | 80 | 203 | 0.0 | 0.9 | 0.00 | 0.00 | 0.00 | 22 | 1011.1 |
| 20260507030147 | 80 | 158 | 0.0 | 1.7 | 0.00 | 0.00 | 0.00 | 22 | 1011.1 |
| 20260507025921 | 80 | 203 | 0.0 | 1.7 | 0.00 | 0.00 | 0.00 | 22 | 1011.1 |
| 20260507025111 | 81 | 225 | 0.0 | 3.5 | 0.00 | 0.00 | 0.00 | 22 | 1010.8 |
| 20260507024611 | 81 | 225 | 0.9 | 3.5 | 0.00 | 0.00 | 0.00 | 20 | 1010.8 |
| 20260507024111 | 81 | 270 | 0.0 | 1.7 | 0.00 | 0.00 | 0.00 | 20 | 1010.8 |
| 20260507023611 | 81 | 270 | 0.0 | 1.7 | 0.00 | 0.00 | 0.00 | 20 | 1010.8 |
| 20260507023340 | 81 | 225 | 0.0 | 1.7 | 0.00 | 0.00 | 0.00 | 20 | 1010.8 |
| 20260507022840 | 82 | 158 | 0.0 | 2.6 | 0.00 | 0.00 | 0.00 | 20 | 1010.5 |
| 20260507022110 | 82 | 248 | 0.0 | 2.6 | 0.00 | 0.00 | 0.00 | 20 | 1010.5 |
| 20260507021841 | 82 | 203 | 0.0 | 1.7 | 0.00 | 0.00 | 0.00 | 20 | 1010.5 |
| 20260507021110 | 82 | 203 | 0.0 | 1.7 | 0.00 | 0.00 | 0.00 | 20 | 1010.5 |
| 20260507020612 | 82 | 270 | 0.0 | 1.7 | 0.00 | 0.00 | 0.00 | 20 | 1010.5 |
| 20260507020111 | 83 | 225 | 0.0 | 1.7 | 0.00 | 0.00 | 0.00 | 20 | 1010.5 |
| 20260507015611 | 83 | 203 | 0.0 | 3.5 | 0.00 | 0.00 | 0.00 | 20 | 1010.5 |
| 20260507015111 | 83 | 270 | 0.0 | 3.5 | 0.00 | 0.00 | 0.00 | 20 | 1010.5 |
| 20260507014610 | 83 | 270 | 0.0 | 3.5 | 0.00 | 0.00 | 0.00 | 20 | 1010.0 |
| 20260507014110 | 83 | 180 | 0.0 | 3.5 | 0.00 | 0.00 | 0.00 | 20 | 1010.5 |
| 20260507013610 | 83 | 270 | 0.0 | 2.6 | 0.00 | 0.00 | 0.00 | 20 | 1010.5 |
| 20260507013110 | 83 | 68 | 0.0 | 2.6 | 0.00 | 0.00 | 0.00 | 20 | 1010.5 |
| 20260507012610 | 84 | 270 | 0.0 | 2.6 | 0.00 | 0.00 | 0.00 | 20 | 1010.0 |
| 20260507012111 | 84 | 225 | 0.0 | 3.5 | 0.00 | 0.00 | 0.00 | 19 | 1010.5 |
| 20260507011611 | 84 | 158 | 0.9 | 3.5 | 0.00 | 0.00 | 0.00 | 19 | 1010.0 |
| 20260507011111 | 84 | 203 | 0.0 | 4.3 | 0.00 | 0.00 | 0.00 | 19 | 1010.0 |
| 20260507010610 | 85 | 225 | 0.9 | 4.3 | 0.00 | 0.00 | 0.00 | 19 | 1010.5 |
| 20260507010341 | 85 | 270 | 0.9 | 4.3 | 0.00 | 0.00 | 0.00 | 19 | 1010.5 |
| 20260507005613 | 85 | 248 | 0.0 | 2.6 | 0.00 | 0.00 | 0.00 | 19 | 1010.0 |
| 20260507005109 | 85 | 270 | 0.0 | 2.6 | 0.00 | 0.00 | 0.00 | 19 | 1010.5 |
| 20260507004610 | 85 | 270 | 0.0 | 3.5 | 0.00 | 0.00 | 0.00 | 19 | 1010.0 |
| 20260507004109 | 86 | 203 | 0.9 | 3.5 | 0.00 | 0.00 | 0.00 | 17 | 1010.0 |
| 20260507003610 | 86 | 248 | 0.0 | 5.2 | 0.00 | 0.00 | 0.00 | 17 | 1010.0 |
| 20260507003111 | 86 | 270 | 0.9 | 5.2 | 0.00 | 0.00 | 0.00 | 17 | 1010.5 |
| 20260507002612 | 87 | 248 | 0.9 | 5.2 | 0.00 | 0.00 | 0.00 | 17 | 1010.0 |
| 20260507002111 | 87 | 158 | 0.9 | 3.5 | 0.00 | 0.00 | 0.00 | 19 | 1010.0 |
| 20260507001611 | 88 | 225 | 0.0 | 4.3 | 0.00 | 0.00 | 0.00 | 17 | 1010.5 |
| 20260507001111 | 88 | 293 | 0.9 | 4.3 | 0.00 | 0.00 | 0.00 | 19 | 1010.0 |
| 20260507000609 | 88 | 90 | 0.9 | 4.3 | 0.00 | 0.00 | 0.00 | 17 | 1010.0 |
| 20260507000109 | 88 | 248 | 0.9 | 4.3 | 0.00 | 0.00 | 0.00 | 17 | 1010.0 |
| 20260506235609 | 88 | 0 | 0.0 | 3.5 | 0.00 | 0.00 | 0.00 | 19 | 1010.0 |
| 20260506235111 | 88 | 203 | 0.0 | 5.2 | 0.00 | 0.00 | 0.00 | 17 | 1010.0 |
| 20260506234610 | 88 | 45 | 0.9 | 5.2 | 0.00 | 0.00 | 0.00 | 19 | 1010.0 |
| 20260506234110 | 87 | 270 | 0.9 | 3.5 | 0.00 | 0.00 | 0.00 | 19 | 1010.0 |
| 20260506233611 | 87 | 270 | 0.0 | 3.5 | 0.00 | 0.00 | 0.00 | 19 | 1010.5 |
| 20260506233110 | 87 | 135 | 0.9 | 5.2 | 0.00 | 0.00 | 0.00 | 19 | 1010.5 |
| 20260506232602 | 87 | 90 | 0.9 | 5.2 | 0.00 | 0.00 | 0.00 | 20 | 1010.5 |
| 20260506232050 | 87 | 203 | 0.9 | 5.2 | 0.00 | 0.00 | 0.00 | 20 | 1010.5 |
| 20260506231551 | 87 | 45 | 0.9 | 6.1 | 0.00 | 0.00 | 0.00 | 19 | 1010.8 |
| 20260506231050 | 87 | 338 | 0.9 | 6.1 | 0.00 | 0.00 | 0.00 | 19 | 1010.5 |
| 20260506230552 | 87 | 270 | 0.9 | 4.3 | 0.00 | 0.00 | 0.00 | 19 | 1010.5 |
| 20260506230052 | 87 | 158 | 0.0 | 4.3 | 0.00 | 0.00 | 0.00 | 20 | 1010.8 |
| 20260506225551 | 86 | 338 | 0.0 | 5.2 | 0.00 | 0.00 | 0.00 | 20 | 1010.8 |
| 20260506225052 | 86 | 23 | 0.0 | 5.2 | 0.00 | 0.00 | 0.00 | 20 | 1010.8 |
| 20260506224551 | 86 | 90 | 0.9 | 4.3 | 0.00 | 0.00 | 0.00 | 19 | 1010.8 |
| 20260506224050 | 87 | 203 | 0.0 | 3.5 | 0.00 | 0.00 | 0.00 | 19 | 1011.1 |
| 20260506223551 | 87 | 45 | 0.0 | 3.5 | 0.00 | 0.00 | 0.00 | 19 | 1011.1 |
| 20260506223051 | 87 | 203 | 0.9 | 6.1 | 0.00 | 0.00 | 0.00 | 19 | 1011.5 |
| 20260506222550 | 87 | 270 | 1.7 | 7.8 | 0.00 | 0.00 | 0.00 | 17 | 1011.1 |
| 20260506222051 | 87 | 293 | 1.7 | 7.8 | 0.00 | 0.00 | 0.00 | 19 | 1011.1 |
| 20260506221821 | 87 | 270 | 0.9 | 5.2 | 0.00 | 0.00 | 0.00 | 19 | 1011.5 |
| 20260506221051 | 87 | 180 | 0.9 | 6.1 | 0.00 | 0.00 | 0.00 | 19 | 1011.1 |
| 20260506220551 | 87 | 113 | 0.9 | 6.1 | 0.00 | 0.00 | 0.00 | 20 | 1011.5 |
| 20260506220322 | 87 | 315 | 0.0 | 4.3 | 0.00 | 0.00 | 0.00 | 20 | 1011.5 |
| 20260506215821 | 87 | 338 | 0.9 | 5.2 | 0.00 | 0.00 | 0.00 | 20 | 1011.8 |
| 20260506215050 | 87 | 180 | 0.9 | 5.2 | 0.00 | 0.00 | 0.00 | 20 | 1011.8 |
| 20260506214823 | 86 | 0 | 0.9 | 4.3 | 0.00 | 0.00 | 0.00 | 20 | 1011.8 |
| 20260506214050 | 86 | 68 | 0.9 | 6.1 | 0.00 | 0.00 | 0.00 | 19 | 1011.8 |
| 20260506213550 | 86 | 23 | 1.7 | 6.1 | 0.00 | 0.00 | 0.00 | 20 | 1012.1 |
| 20260506213052 | 86 | 270 | 0.9 | 5.2 | 0.00 | 0.00 | 0.00 | 20 | 1012.1 |
| 20260506212821 | 86 | 270 | 0.9 | 4.3 | 0.00 | 0.00 | 0.00 | 20 | 1012.1 |
| 20260506212051 | 86 | 23 | 0.9 | 4.3 | 0.00 | 0.00 | 0.00 | 19 | 1012.1 |
| 20260506211551 | 86 | 270 | 0.9 | 5.2 | 0.00 | 0.00 | 0.00 | 20 | 1012.5 |
| 20260506211051 | 86 | 248 | 0.9 | 6.1 | 0.00 | 0.00 | 0.00 | 19 | 1012.5 |
| 20260506210822 | 86 | 248 | 1.7 | 7.0 | 0.00 | 0.00 | 0.00 | 20 | 1012.5 |
| 20260506210050 | 86 | 23 | 0.9 | 7.0 | 0.00 | 0.00 | 0.00 | 19 | 1012.5 |
| 20260506205550 | 86 | 248 | 0.9 | 4.3 | 0.00 | 0.00 | 0.00 | 20 | 1012.5 |
| 20260506205051 | 86 | 0 | 0.9 | 4.3 | 0.00 | 0.00 | 0.00 | 20 | 1012.5 |
| 20260506204822 | 86 | 315 | 0.0 | 3.5 | 0.00 | 0.00 | 0.00 | 20 | 1012.8 |
| 20260506204051 | 86 | 270 | 0.0 | 4.3 | 0.00 | 0.00 | 0.00 | 20 | 1012.8 |
| 20260506203822 | 86 | 293 | 0.9 | 4.3 | 0.00 | 0.00 | 0.00 | 20 | 1012.8 |
| 20260506203051 | 86 | 23 | 0.9 | 3.5 | 0.00 | 0.00 | 0.00 | 22 | 1012.8 |
| 20260506202551 | 85 | 23 | 0.9 | 7.8 | 0.00 | 0.00 | 0.00 | 20 | 1012.8 |
| 20260506202049 | 85 | 293 | 1.7 | 7.8 | 0.00 | 0.00 | 0.00 | 20 | 1013.3 |
| 20260506201550 | 85 | 293 | 0.9 | 6.1 | 0.00 | 0.00 | 0.00 | 22 | 1013.3 |
| 20260506201320 | 84 | 315 | 1.7 | 6.1 | 0.00 | 0.00 | 0.00 | 20 | 1013.3 |
| 20260506200549 | 84 | 225 | 0.0 | 4.3 | 0.00 | 0.00 | 0.00 | 20 | 1012.8 |
| 20260506200051 | 84 | 270 | 0.9 | 3.5 | 0.00 | 0.00 | 0.00 | 20 | 1013.3 |
| 20260506195555 | 84 | 293 | 0.9 | 3.5 | 0.00 | 0.00 | 0.00 | 20 | 1013.3 |
| 20260506195551 | 84 | 270 | 0.0 | 3.5 | 0.00 | 0.00 | 0.00 | 22 | 1013.3 |
| 20260506194822 | 84 | 270 | 0.0 | 4.3 | 0.00 | 0.00 | 0.00 | 20 | 1013.3 |
| 20260506194051 | 84 | 225 | 0.9 | 4.3 | 0.00 | 0.00 | 0.00 | 22 | 1013.6 |
| 20260506193549 | 84 | 338 | 0.9 | 7.8 | 0.00 | 0.00 | 0.00 | 22 | 1013.3 |
| 20260506193321 | 83 | 270 | 0.9 | 7.8 | 0.00 | 0.00 | 0.00 | 22 | 1013.6 |
| 20260506192549 | 83 | 23 | 0.0 | 3.5 | 0.00 | 0.00 | 0.00 | 22 | 1013.9 |
| 20260506192050 | 83 | 90 | 0.9 | 3.5 | 0.00 | 0.00 | 0.00 | 22 | 1013.9 |
| 20260506191820 | 83 | 338 | 0.9 | 3.5 | 0.00 | 0.00 | 0.00 | 24 | 1013.9 |
| 20260506191051 | 82 | 338 | 0.0 | 2.6 | 0.00 | 0.00 | 0.00 | 24 | 1013.9 |
| 20260506190550 | 82 | 0 | 0.0 | 5.2 | 0.00 | 0.00 | 0.00 | 22 | 1013.9 |
| 20260506190050 | 81 | 23 | 1.7 | 6.1 | 0.00 | 0.00 | 0.00 | 24 | 1013.9 |
| 20260506185821 | 81 | 45 | 0.9 | 6.1 | 0.00 | 0.00 | 0.00 | 24 | 1013.9 |
| 20260506185320 | 81 | 315 | 0.9 | 4.3 | 0.00 | 0.00 | 0.00 | 22 | 1014.3 |
| 20260506184549 | 80 | 338 | 0.9 | 4.3 | 0.00 | 0.00 | 0.00 | 22 | 1014.3 |
| 20260506184048 | 80 | 180 | 0.9 | 4.3 | 0.00 | 0.00 | 0.00 | 25 | 1014.3 |
| 20260506183550 | 80 | 203 | 0.9 | 3.5 | 0.00 | 0.00 | 0.00 | 24 | 1014.3 |
| 20260506183050 | 80 | 90 | 0.0 | 3.5 | 0.00 | 0.00 | 0.00 | 24 | 1014.3 |
| 20260506182531 | 80 | 158 | 0.0 | 3.5 | 0.00 | 0.00 | 0.00 | 25 | 1014.6 |
| 20260506182032 | 80 | 293 | 0.9 | 4.3 | 0.00 | 0.00 | 0.00 | 25 | 1014.6 |
| 20260506181531 | 80 | 180 | 0.9 | 5.2 | 0.00 | 0.00 | 0.00 | 25 | 1014.6 |
| 20260506181031 | 80 | 0 | 0.9 | 5.2 | 0.00 | 0.00 | 0.00 | 25 | 1014.6 |
| 20260506180530 | 80 | 270 | 0.9 | 5.2 | 0.00 | 0.00 | 0.00 | 25 | 1015.0 |
| 20260506180030 | 80 | 270 | 0.9 | 5.2 | 0.00 | 0.00 | 0.00 | 25 | 1014.6 |
| 20260506175530 | 79 | 293 | 0.0 | 3.5 | 0.00 | 0.00 | 0.00 | 27 | 1014.6 |
| 20260506175031 | 79 | 270 | 0.0 | 2.6 | 0.00 | 0.00 | 0.00 | 27 | 1015.0 |
| 20260506174530 | 79 | 248 | 0.0 | 2.6 | 0.00 | 0.00 | 0.00 | 27 | 1014.6 |
| 20260506174031 | 78 | 113 | 0.0 | 4.3 | 0.00 | 0.00 | 0.00 | 27 | 1014.6 |
| 20260506173531 | 78 | 0 | 0.0 | 4.3 | 0.00 | 0.00 | 0.00 | 29 | 1015.0 |
| 20260506173031 | 77 | 68 | 0.9 | 4.3 | 0.00 | 0.00 | 0.00 | 29 | 1014.6 |
| 20260506172802 | 77 | 0 | 0.9 | 4.3 | 0.00 | 0.00 | 0.00 | 29 | 1014.6 |
| 20260506172030 | 77 | 158 | 0.9 | 4.3 | 0.00 | 0.00 | 0.00 | 27 | 1014.6 |
| 20260506171530 | 78 | 270 | 0.9 | 4.3 | 0.00 | 0.00 | 0.00 | 27 | 1014.6 |
| 20260506171030 | 78 | 315 | 0.0 | 2.6 | 0.00 | 0.00 | 0.00 | 27 | 1014.6 |
| 20260506170530 | 78 | 45 | 0.0 | 1.7 | 0.00 | 0.00 | 0.00 | 29 | 1014.6 |
| 20260506170031 | 78 | 203 | 0.0 | 2.6 | 0.00 | 0.00 | 0.00 | 29 | 1014.6 |
| 20260506165801 | 77 | 45 | 0.0 | 3.5 | 0.00 | 0.00 | 0.00 | 29 | 1015.0 |
| 20260506165305 | 77 | 135 | 0.0 | 4.3 | 0.00 | 0.00 | 0.00 | 30 | 1015.0 |
| 20260506164531 | 76 | 203 | 0.9 | 4.3 | 0.00 | 0.00 | 0.00 | 29 | 1014.6 |
| 20260506164031 | 76 | 203 | 0.0 | 1.7 | 0.00 | 0.00 | 0.00 | 30 | 1014.6 |
| 20260506163531 | 76 | 225 | 0.0 | 2.6 | 0.00 | 0.00 | 0.00 | 30 | 1015.0 |
| 20260506163029 | 75 | 113 | 0.0 | 2.6 | 0.00 | 0.00 | 0.00 | 30 | 1014.6 |
| 20260506162529 | 74 | 158 | 0.0 | 2.6 | 0.00 | 0.00 | 0.00 | 30 | 1014.6 |
| 20260506162030 | 74 | 158 | 0.0 | 3.5 | 0.00 | 0.00 | 0.00 | 30 | 1014.6 |
| 20260506161529 | 74 | 270 | 0.0 | 3.5 | 0.00 | 0.00 | 0.00 | 31 | 1015.0 |
| 20260506161031 | 73 | 90 | 0.0 | 2.6 | 0.00 | 0.00 | 0.00 | 31 | 1014.6 |
| 20260506160531 | 73 | 180 | 0.0 | 1.7 | 0.00 | 0.00 | 0.00 | 31 | 1015.0 |
| 20260506160030 | 72 | 0 | 0.0 | 3.5 | 0.00 | 0.00 | 0.00 | 32 | 1015.0 |
| 20260506155531 | 72 | 338 | 0.0 | 3.5 | 0.00 | 0.00 | 0.00 | 34 | 1014.6 |
| 20260506155031 | 71 | 338 | 0.0 | 2.6 | 0.00 | 0.00 | 0.00 | 35 | 1014.6 |
| 20260506154800 | 71 | 338 | 0.0 | 1.7 | 0.00 | 0.00 | 0.00 | 35 | 1014.6 |
| 20260506154029 | 71 | 113 | 0.0 | 1.7 | 0.00 | 0.00 | 0.00 | 35 | 1014.6 |
| 20260506153529 | 71 | 23 | 0.0 | 2.6 | 0.00 | 0.00 | 0.00 | 35 | 1014.6 |
| 20260506153301 | 70 | 180 | 0.9 | 2.6 | 0.00 | 0.00 | 0.00 | 35 | 1014.6 |
| 20260506152531 | 70 | 23 | 0.0 | 2.6 | 0.00 | 0.00 | 0.00 | 35 | 1015.0 |
| 20260506152031 | 70 | 315 | 0.0 | 2.6 | 0.00 | 0.00 | 0.00 | 37 | 1014.6 |
| 20260506151530 | 69 | 0 | 0.0 | 1.7 | 0.00 | 0.00 | 0.00 | 37 | 1014.6 |
| 20260506151030 | 69 | 68 | 0.0 | 1.7 | 0.00 | 0.00 | 0.00 | 37 | 1014.6 |
| 20260506150531 | 69 | 23 | 0.0 | 0.9 | 0.00 | 0.00 | 0.00 | 37 | 1014.6 |
| 20260506150029 | 69 | 135 | 0.0 | 0.9 | 0.00 | 0.00 | 0.00 | 37 | 1014.6 |
| 20260506145529 | 68 | 203 | 0.0 | 1.7 | 0.00 | 0.00 | 0.00 | 39 | 1014.3 |
| 20260506145029 | 68 | 158 | 0.0 | 1.7 | 0.00 | 0.00 | 0.00 | 39 | 1014.6 |
| 20260506144529 | 67 | 113 | 0.0 | 0.9 | 0.00 | 0.00 | 0.00 | 40 | 1014.6 |
| 20260506144302 | 66 | 113 | 0.0 | 0.9 | 0.00 | 0.00 | 0.00 | 40 | 1014.6 |
| 20260506143530 | 66 | 90 | 0.0 | 0.9 | 0.00 | 0.00 | 0.00 | 41 | 1014.6 |
| 20260506143031 | 65 | 90 | 0.0 | 0.9 | 0.00 | 0.00 | 0.00 | 41 | 1014.6 |
| 20260506142530 | 65 | 135 | 0.0 | 1.7 | 0.00 | 0.00 | 0.00 | 41 | 1014.3 |
| 20260506142031 | 64 | 203 | 0.0 | 1.7 | 0.00 | 0.00 | 0.00 | 43 | 1014.3 |
| 20260506141800 | 64 | 180 | 0.0 | 0.0 | 0.00 | 0.00 | 0.00 | 41 | 1014.6 |
| 20260506141024 | 63 | 248 | 0.0 | 1.7 | 0.00 | 0.00 | 0.00 | 44 | 1014.3 |
| 20260506140510 | 63 | 203 | 0.0 | 3.5 | 0.00 | 0.00 | 0.00 | 44 | 1014.3 |
| 20260506140241 | 62 | 203 | 0.0 | 3.5 | 0.00 | 0.00 | 0.00 | 45 | 1014.3 |
| 20260506135511 | 62 | 158 | 0.0 | 1.7 | 0.00 | 0.00 | 0.00 | 45 | 1014.3 |
| 20260506135012 | 61 | 293 | 0.0 | 1.7 | 0.00 | 0.00 | 0.00 | 45 | 1013.9 |
| 20260506134512 | 61 | 225 | 0.0 | 0.0 | 0.00 | 0.00 | 0.00 | 45 | 1013.9 |
| 20260506134012 | 60 | 270 | 0.0 | 0.0 | 0.00 | 0.00 | 0.00 | 46 | 1013.9 |
| 20260506133512 | 60 | 135 | 0.0 | 0.0 | 0.00 | 0.00 | 0.00 | 46 | 1013.9 |
| 20260506133241 | 60 | 68 | 0.0 | 0.0 | 0.00 | 0.00 | 0.00 | 48 | 1013.9 |
| 20260506132510 | 60 | 45 | 0.0 | 0.0 | 0.00 | 0.00 | 0.00 | 48 | 1013.9 |
| 20260506132010 | 60 | 338 | 0.0 | 0.0 | 0.00 | 0.00 | 0.00 | 48 | 1013.9 |
| 20260506131510 | 60 | 113 | 0.0 | 0.0 | 0.00 | 0.00 | 0.00 | 49 | 1013.9 |
| 20260506131010 | 60 | 68 | 0.0 | 0.0 | 0.00 | 0.00 | 0.00 | 49 | 1013.9 |
| 20260506130511 | 59 | 45 | 0.0 | 0.0 | 0.00 | 0.00 | 0.00 | 48 | 1013.9 |
| 20260506130011 | 59 | 45 | 0.0 | 0.0 | 0.00 | 0.00 | 0.00 | 46 | 1013.6 |